Location: Newark
(40.3500°N, 15.2333°E)
Time: 04:53:20
(UTC+00:00)

Altair - Pass Details

Date: 20 January 2020
Orbit: 1502 x 1682 km, 47.2° (Epoch: 16 February)

Event Time Altitude Azimuth Distance (km) Brightness Sun altitude
Rises 05:48:31 0° 170° (S) 4,852 10.6 -6.0°
Reaches altitude 10° 05:54:03 10° 146° (SE) 3,902 10.6 -5.0°
Maximum altitude 05:58:06 13° 121° (ESE) 3,670 11.2 -4.3°
Drops below altitude 10° 06:02:11 10° 96° (E) 3,938 11.2 -3.6°
Sets 06:07:46 0° 73° (ENE) 4,937 11.0 -2.6°
